Retour au catalogue

STARLINK-35755

ActifCommunicationsVLEO
NORAD 67163·PAYLOAD·🇺🇸 United States

Lancé Dec 17, 2025 depuis Cape Canaveral Space Force Station

Loading…

Prochains Passages (prochaines 24 heures)

TLE

FraisSource: CelesTrak SupGP

Époque: Sep 15, 2026, 03:09 UTC

1 67163C 25303A   26258.13173611  .00035922  00000+0  13007-2 0  2583
2 67163  43.0033 320.8375 0001809 265.1718 252.7121 15.27569574    16

Suivez STARLINK-35755 en temps réel avec AllMySat

Download on the App Store